Weather History for Jasper, AL

Change the Weather History Date:

Monday, March 25, 2013

  Actual Average Record
Temperature  
Mean Temperature 40 °F -  
Max Temperature 46 °F 67 °F 84 °F (1967)
Min Temperature 33 °F 35 °F 19 °F (1966)
Degree Days  
Heating Degree Days 26    
Moisture  
Dew Point 27 °F    
Average Humidity 61    
Maximum Humidity 70    
Minimum Humidity 46    
Precipitation  
Precipitation 0.00 in - - ()
Sea Level Pressure  
Sea Level Pressure 30.04 in    
Wind  
Wind Speed 15 mph (WNW)    
Max Wind Speed 23 mph    
Max Gust Speed 29 mph    
Visibility 10 miles    
Events      
Averages and records for this station are not official NWS values.
T = Trace of Precipitation, MM = Missing Value Source: NWS Daily Summary

Daily Weather History Graph

Daily Weather History Graph

Search for Another Location

Airport:

Trip Planner

Search our weather history database for the weather conditions in past years. The results will help you decide how hot, cold, wet, or windy it might be!

Date:

Astronomy

Mar. 25, 2013 Rise Set
Actual Time 6:45 AM CDT 7:04 PM CDT
Civil Twilight 6:20 AM CDT 7:29 PM CDT
Nautical Twilight 5:51 AM CDT 7:59 PM CDT
Astronomical Twilight 5:21 AM CDT 8:28 PM CDT
Moon 5:38 PM CDT (3/25) 5:25 AM CDT (3/25)
Length of Visible Light 13h 09m
Length of Day
12h 19m
Waxing Gibbous, 96% of the Moon is Illuminated
Mar 25
Waxing Gibbous
Mar 27
Full
Apr 2
Last Quarter
Apr 10
New
Apr 18
First Quarter

Hourly Weather History & Observations

Time (CDT) Temp. Windchill Dew Point Humidity Pressure Visibility Wind Dir Wind Speed Gust Speed Precip Events Conditions
12:15 AM 41.0 °F 31.1 °F 30.2 °F 65% 29.88 in 10.0 mi West 23.0 mph 27.6 mph N/A   Overcast
12:35 AM 41.0 °F 32.2 °F 28.4 °F 61% 29.89 in 10.0 mi WNW 18.4 mph 24.2 mph N/A   Overcast
12:55 AM 39.2 °F 29.6 °F 28.4 °F 65% 29.89 in 10.0 mi WNW 19.6 mph 26.5 mph N/A   Overcast
1:15 AM 39.2 °F 30.2 °F 28.4 °F 65% 29.89 in 10.0 mi WNW 17.3 mph 24.2 mph N/A   Overcast
1:35 AM 39.2 °F 30.2 °F 28.4 °F 65% 29.90 in 10.0 mi WNW 17.3 mph 28.8 mph N/A   Overcast
1:55 AM 39.2 °F 31.2 °F 28.4 °F 65% 29.91 in 10.0 mi WNW 13.8 mph 21.9 mph N/A   Overcast
2:15 AM 39.2 °F 30.8 °F 28.4 °F 65% 29.91 in 10.0 mi WNW 15.0 mph - N/A   Overcast
2:35 AM 39.2 °F 31.2 °F 30.2 °F 70% 29.91 in 10.0 mi WNW 13.8 mph 19.6 mph N/A   Overcast
2:55 AM 39.2 °F 30.2 °F 26.6 °F 61% 29.91 in 10.0 mi WNW 17.3 mph 27.6 mph N/A   Overcast
3:15 AM 39.2 °F 32.0 °F 26.6 °F 61% 29.92 in 10.0 mi NW 11.5 mph 23.0 mph N/A   Overcast
3:35 AM 39.2 °F 30.5 °F 28.4 °F 65% 29.92 in 10.0 mi WNW 16.1 mph - N/A   Overcast
3:55 AM 37.4 °F 28.5 °F 28.4 °F 70% 29.92 in 10.0 mi West 15.0 mph - N/A   Overcast
4:15 AM 37.4 °F 28.5 °F 26.6 °F 65% 29.93 in 10.0 mi WNW 15.0 mph 20.7 mph N/A   Overcast
4:35 AM 37.4 °F 28.2 °F 24.8 °F 60% 29.93 in 10.0 mi WNW 16.1 mph 20.7 mph N/A   Overcast
4:55 AM 37.4 °F 27.8 °F 24.8 °F 60% 29.93 in 10.0 mi NW 17.3 mph 21.9 mph N/A   Overcast
5:15 AM 35.6 °F 25.2 °F 24.8 °F 65% 29.93 in 10.0 mi NW 18.4 mph 25.3 mph N/A   Mostly Cloudy
5:35 AM 35.6 °F 26.6 °F 24.8 °F 65% 29.94 in 10.0 mi WNW 13.8 mph 21.9 mph N/A   Partly Cloudy
5:55 AM 33.8 °F 24.8 °F 24.8 °F 70% 29.94 in 10.0 mi WNW 12.7 mph 18.4 mph N/A   Clear
6:15 AM 33.8 °F 23.9 °F 24.8 °F 70% 29.95 in 10.0 mi NW 15.0 mph 20.7 mph N/A   Clear
6:35 AM 35.6 °F 29.2 °F 26.6 °F 70% 29.96 in 10.0 mi NW 8.1 mph 18.4 mph N/A   Mostly Cloudy
6:55 AM 35.6 °F 29.9 °F 26.6 °F 70% 29.97 in 10.0 mi NW 6.9 mph - N/A   Overcast
7:15 AM 35.6 °F 28.6 °F 26.6 °F 70% 29.97 in 10.0 mi WNW 9.2 mph - N/A   Overcast
7:35 AM 35.6 °F 29.2 °F 26.6 °F 70% 29.98 in 10.0 mi WNW 8.1 mph - N/A   Overcast
7:55 AM 35.6 °F 28.6 °F 26.6 °F 70% 29.99 in 10.0 mi NW 9.2 mph - N/A   Overcast
8:15 AM 37.4 °F 30.8 °F 28.4 °F 70% 30.00 in 10.0 mi WNW 9.2 mph - N/A   Overcast
8:35 AM 37.4 °F 29.3 °F 28.4 °F 70% 30.01 in 10.0 mi WNW 12.7 mph - N/A   Overcast
8:55 AM 37.4 °F 30.3 °F 28.4 °F 70% 30.02 in 10.0 mi WNW 10.4 mph 16.1 mph N/A   Overcast
9:15 AM 37.4 °F 27.5 °F 26.6 °F 65% 30.02 in 10.0 mi WNW 18.4 mph 24.2 mph N/A   Overcast
9:35 AM 39.2 °F 30.5 °F 26.6 °F 61% 30.03 in 10.0 mi WNW 16.1 mph 20.7 mph N/A   Overcast
9:55 AM 39.2 °F 30.5 °F 26.6 °F 61% 30.04 in 10.0 mi WNW 16.1 mph - N/A   Overcast
10:15 AM 39.2 °F 30.2 °F 26.6 °F 61% 30.04 in 10.0 mi WNW 17.3 mph 21.9 mph N/A   Mostly Cloudy
10:35 AM 39.2 °F 31.6 °F 26.6 °F 61% 30.05 in 10.0 mi West 12.7 mph 20.7 mph N/A   Mostly Cloudy
10:55 AM 41.0 °F 34.3 °F 26.6 °F 57% 30.05 in 10.0 mi WNW 11.5 mph 21.9 mph N/A   Mostly Cloudy
11:15 AM 42.8 °F 35.1 °F 26.6 °F 53% 30.05 in 10.0 mi WNW 16.1 mph 24.2 mph N/A   Mostly Cloudy
11:35 AM 41.0 °F 32.8 °F 26.6 °F 57% 30.06 in 10.0 mi WNW 16.1 mph 20.7 mph N/A   Mostly Cloudy
11:55 AM 44.6 °F 37.2 °F 28.4 °F 53% 30.06 in 10.0 mi WNW 17.3 mph 25.3 mph N/A   Mostly Cloudy
12:15 PM 44.6 °F 36.9 °F 28.4 °F 53% 30.05 in 10.0 mi WNW 18.4 mph 26.5 mph N/A   Mostly Cloudy
12:35 PM 44.6 °F 37.4 °F 28.4 °F 53% 30.05 in 10.0 mi WNW 16.1 mph 21.9 mph N/A   Scattered Clouds
12:55 PM 44.6 °F 38.1 °F 26.6 °F 49% 30.05 in 10.0 mi WNW 13.8 mph 23.0 mph N/A   Partly Cloudy
1:15 PM 46.4 °F 39.2 °F 28.4 °F 50% 30.04 in 10.0 mi WNW 18.4 mph 26.5 mph N/A   Partly Cloudy
1:35 PM 42.8 °F 35.8 °F 26.6 °F 53% 30.05 in 10.0 mi NW 13.8 mph 26.5 mph N/A   Partly Cloudy
1:55 PM 44.6 °F 38.8 °F 26.6 °F 49% 30.05 in 10.0 mi WNW 11.5 mph 21.9 mph N/A   Mostly Cloudy
2:15 PM 44.6 °F 37.4 °F 26.6 °F 49% 30.05 in 10.0 mi NW 16.1 mph 23.0 mph N/A   Scattered Clouds
2:35 PM 44.6 °F 36.9 °F 26.6 °F 49% 30.05 in 10.0 mi WNW 18.4 mph 25.3 mph N/A   Partly Cloudy
2:55 PM 44.6 °F 37.8 °F 26.6 °F 49% 30.05 in 10.0 mi WNW 15.0 mph 21.9 mph N/A   Scattered Clouds
3:15 PM 44.6 °F 36.4 °F 26.6 °F 49% 30.06 in 10.0 mi WNW 20.7 mph 25.3 mph N/A   Partly Cloudy
3:35 PM 46.4 °F 38.3 °F 26.6 °F 46% 30.06 in 10.0 mi West 23.0 mph 27.6 mph N/A   Clear
3:55 PM 46.4 °F 39.2 °F 26.6 °F 46% 30.07 in 10.0 mi West 18.4 mph 26.5 mph N/A   Clear
4:15 PM 44.6 °F 36.4 °F 26.6 °F 49% 30.08 in 10.0 mi WNW 20.7 mph 28.8 mph N/A   Partly Cloudy
4:35 PM 44.6 °F 38.1 °F 26.6 °F 49% 30.08 in 10.0 mi West 13.8 mph 25.3 mph N/A   Partly Cloudy
4:55 PM 44.6 °F 36.9 °F 26.6 °F 49% 30.09 in 10.0 mi West 18.4 mph 25.3 mph N/A   Partly Cloudy
5:15 PM 42.8 °F 35.1 °F 26.6 °F 53% 30.09 in 10.0 mi WNW 16.1 mph 21.9 mph N/A   Clear
5:35 PM 42.8 °F 35.1 °F 24.8 °F 49% 30.10 in 10.0 mi NW 16.1 mph 24.2 mph N/A   Clear
5:55 PM 42.8 °F 34.0 °F 24.8 °F 49% 30.10 in 10.0 mi NW 20.7 mph 26.5 mph N/A   Partly Cloudy
6:15 PM 41.0 °F 33.5 °F 24.8 °F 53% 30.12 in 10.0 mi NW 13.8 mph 21.9 mph N/A   Partly Cloudy
6:35 PM 41.0 °F 33.1 °F 24.8 °F 53% 30.12 in 10.0 mi NW 15.0 mph 20.7 mph N/A   Clear
6:55 PM 39.2 °F 33.0 °F 26.6 °F 61% 30.13 in 10.0 mi NW 9.2 mph - N/A   Clear
7:15 PM 39.2 °F 31.2 °F 26.6 °F 61% 30.14 in 10.0 mi WNW 13.8 mph 20.7 mph N/A   Scattered Clouds
7:35 PM 39.2 °F 33.0 °F 26.6 °F 61% 30.14 in 10.0 mi WNW 9.2 mph - N/A   Partly Cloudy
7:55 PM 39.2 °F 34.2 °F 28.4 °F 65% 30.15 in 10.0 mi NW 6.9 mph - N/A   Scattered Clouds
8:15 PM 37.4 °F 29.8 °F 28.4 °F 70% 30.15 in 10.0 mi WNW 11.5 mph - N/A   Partly Cloudy
8:35 PM 37.4 °F 32.8 °F 28.4 °F 70% 30.16 in 10.0 mi WNW 5.8 mph - N/A   Clear
8:55 PM 37.4 °F 32.8 °F 28.4 °F 70% 30.17 in 10.0 mi WNW 5.8 mph - N/A   Scattered Clouds
9:15 PM 37.4 °F 32.8 °F 28.4 °F 70% 30.18 in 10.0 mi WNW 5.8 mph - N/A   Partly Cloudy
9:35 PM 37.4 °F 32.8 °F 28.4 °F 70% 30.18 in 10.0 mi WNW 5.8 mph - N/A   Scattered Clouds
9:55 PM 37.4 °F 31.4 °F 28.4 °F 70% 30.18 in 10.0 mi NW 8.1 mph - N/A   Mostly Cloudy
10:15 PM 37.4 °F 32.8 °F 26.6 °F 65% 30.19 in 10.0 mi WNW 5.8 mph - N/A   Scattered Clouds
10:35 PM 37.4 °F 31.4 °F 26.6 °F 65% 30.19 in 10.0 mi WNW 8.1 mph - N/A   Scattered Clouds
10:55 PM 37.4 °F 30.8 °F 26.6 °F 65% 30.19 in 10.0 mi WNW 9.2 mph - N/A   Mostly Cloudy
11:15 PM 35.6 °F 27.5 °F 26.6 °F 70% 30.19 in 10.0 mi WNW 11.5 mph - N/A   Mostly Cloudy
11:35 PM 35.6 °F 28.0 °F 26.6 °F 70% 30.19 in 10.0 mi WNW 10.4 mph - N/A   Mostly Cloudy
11:55 PM 35.6 °F 29.2 °F 26.6 °F 70% 30.19 in 10.0 mi WNW 8.1 mph - N/A   Mostly Cloudy